Showing default

UMBRA-12, 67371

Orbit data source: Space-Track

UMBRA-12, 67371 is a payload satellite owned by Umbra Labs (US) in SSO that was launched on Sun, 11 Jan 2026 UTC via an FALCON 9 launch vehicle from the Air Force Western Test Range (AFWTR). Payload-class satellites include a variety of spacecraft equipped with specific instruments for various scientific and technological missions. These include communications satellites like Starlink; space stations such as the ISS; scientific satellites like the Hubble; Earth observation satellites from companies like Planet Labs, Umbra, and HawkEye 360; GPS; miniature CubeSats for education and research; and military/defense satellites.

Loading next visibility...
Identifier
67371, 2026-004J
Orbit
SSO
Country
Flag of USUS
Related business
Manufacturer
Umbra Labs
Mission
Operational spacecraft
Bus & Motor
ESPASAT?, Unknown motor
Mass
84 kg wet, 79 kg dry
Launch date (UTC)
2026-01-11 (3 months ago)
Launch vehicle
FALCON 9
Launch site
Air Force Western Test Range (AFWTR)
Object type
Payload
Rocket body
Debris
Shape & HBR
Unknown shape, 14.5 m
Radar Cross Section
RCS unknown

Expand to show TLE details & history
Last TLE update: 6 hours ago

TLE from 6 hours ago
0 UMBRA-12
1 67371U 26004J   26095.46387399  .00007781  00000-0  83835-3 0  9990
2 67371  97.8020  95.2784 0006645  27.9224 332.2349 14.88696214 12484
Epoch: 2026-04-05T11:07Z
TLE epoch observation values (Epoch: 2026-04-05T11:07:58.712Z)
Latitude
0.00003°
Longitude
94.51484°
Altitude
600.94 km
Speed
7.561 km/s
True Right ascension
06h 21m 06s
True Declination
0° 00' 00"
Sunlit
Object was in daylight at epoch
Visualization orbit readout
Latitude
Unknown
Longitude
Unknown
Altitude
Unknown
Speed
Unknown
Apparent Right ascension
Unknown
Apparent Declination
Unknown
Sunlit
N/A
Visualization observer readout
Local Sidereal Time
23:11:06
Azimuth
Unknown
Elevation
Unknown
Doppler factor
Unknown
Orbital elements
Apogee altitude
603.669 km
Perigee altitude
594.397 km
Semi-major axis
6,977.17 km
Eccentricity
0.00066
Inclination
97.802°
RAAN
95.2784°
Arg. of periapsis
27.9224°
True anomaly
332.1994°
Mean anomaly
332.2349°
Eccentric anomaly
332.21715°
Mean motion
3.72412 °/min
Orbital period
96.67 mins
BSTAR
0.00083835
Loading maneuver chart data...
Computing Atmospheric mass density...
Loading historical data...
Loading historical data...
Loading historical data...
Loading historical data...
Loading historical data...
Loading historical data...
Loading historical data...

Documentation

Showing up to 5 results
|